Hourly Data Report for July 07, 2021

MANIWAKI AIRPORT
QUEBEC
Current Station Operator: ECCC - MSC

46°16'29.000" N
75°59'31.000" W
199.70 m
7034482
71721
WMJ

Download Data

Hourly Data (July 2021)
Hourly Data Report for July 7, 2021
TIME
LST
Temp Definition
°C
Dew Point Definition
°C
Rel Hum Definition
%
Precip. Amount Definition
mm

Wind Dir Definition
10's deg

Wind Spd Definition
km/h
Visibility Definition
km
Stn Press Definition
kPa
Hmdx Definition


Wind Chill Definition


Weather Definition


00:00 14.5 8.3 66 0.0 35 15   99.21     LegendNANA
01:00 12.9 7.3 69 0.0 1 12   99.23     LegendNANA
02:00 12.1 7.5 73 0.0 35 8   99.21     LegendNANA
03:00 11.3 6.0 70 0.0 1 12   99.24     LegendNANA
04:00 10.7 5.8 72 0.0 36 8   99.28     LegendNANA
05:00 10.4 5.5 72 0.0 36 10   99.34     LegendNANA
06:00 10.7 3.2 59 0.0 36 12   99.37     LegendNANA
07:00 10.5 2.7 58 0.0 36 10   99.38     LegendNANA
08:00 11.1 1.9 53 0.0 35 11   99.41     LegendNANA
09:00 12.5 2.0 49 0.0 36 9   99.38     LegendNANA
10:00 12.7 1.5 46 0.0 36 11   99.39     LegendNANA
11:00 14.8 0.9 39 0.0 36 10   99.38     LegendNANA
12:00 17.2 2.0 36 0.0 32 8   99.34     LegendNANA
13:00 18.4 1.0 31 0.0 29 8   99.30     LegendNANA
14:00 19.4 1.9 31 0.0 1 10   99.29     LegendNANA
15:00
16:00
17:00
18:00
19:00 16.3 10.9 70 0.0 2 4   99.26     LegendNANA
20:00 15.3 7.4 59 0.0 1 8   99.29     LegendNANA
21:00 15.1 5.7 53 0.0 35 8   99.39     LegendNANA
22:00 14.1 5.9 58 0.0 35 6   99.39     LegendNANA
23:00 13.2 6.0 62 0.0 36 8   99.38     LegendNANA

Notes on Data Quality.

Legend

  • E = Estimated
  • M = Missing
  • NA = Not Available*
  • [empty] = Indicates an unobserved value
Date modified: